FW1203 Weather Reports


Display with metric or nautical units.
time (UTC)temp
F
wind
direction
speed
MPH
gust
MPH
rain 1hr
in
rain 24hr
in
rain mn
in
humidity
%
barometer
mb
20260906232306 72 0 0.0 0.0 0.00 0.00 0.00 79 1016.5
20260906231803 72 0 0.0 0.0 0.00 0.00 0.00 79 1016.4
20260906231303 72 0 0.0 0.0 0.00 0.00 0.00 78 1016.4
20260906230803 72 0 0.0 0.0 0.00 0.00 0.00 78 1016.6
20260906230303 72 0 0.0 0.0 0.00 0.00 0.00 77 1016.6
20260906225803 72 0 0.0 0.0 0.00 0.00 0.00 77 1016.7
20260906225306 72 0 0.0 0.0 0.00 0.00 0.00 77 1016.7
20260906224803 72 0 0.0 0.0 0.00 0.00 0.00 76 1016.8
20260906224303 72 0 0.0 0.0 0.00 0.00 0.00 75 1016.8
20260906223803 72 0 0.0 0.0 0.00 0.00 0.00 75 1016.8
20260906223303 73 0 0.0 0.0 0.00 0.00 0.00 75 1016.9
20260906222803 73 0 0.0 0.0 0.00 0.00 0.00 75 1017.0
20260906222305 73 0 0.0 0.0 0.00 0.00 0.00 75 1017.0
20260906221803 73 0 0.0 0.0 0.00 0.00 0.00 75 1017.0
20260906221303 73 0 0.0 0.0 0.00 0.00 0.00 75 1017.1
20260906220803 73 0 0.0 0.0 0.00 0.00 0.00 74 1017.1
20260906220303 73 0 0.0 0.0 0.00 0.00 0.00 75 1017.3
20260906215803 73 0 0.0 0.0 0.00 0.00 0.00 74 1017.3
20260906215306 73 0 0.0 0.0 0.00 0.00 0.00 74 1017.4
20260906214803 73 0 0.0 0.0 0.00 0.00 0.00 73 1017.4
20260906214303 73 0 0.0 0.0 0.00 0.00 0.00 75 1017.5
20260906213803 73 0 0.0 0.0 0.00 0.00 0.00 74 1017.5
20260906213303 73 0 0.0 0.0 0.00 0.00 0.00 73 1017.5
20260906212803 73 0 0.0 0.0 0.00 0.00 0.00 74 1017.6
20260906212306 73 0 0.0 0.0 0.00 0.00 0.00 74 1017.5
20260906211803 74 0 0.0 0.0 0.00 0.00 0.00 74 1017.6
20260906211303 74 0 0.0 0.0 0.00 0.00 0.00 75 1017.6
20260906210803 74 0 0.0 0.0 0.00 0.00 0.00 75 1017.5
20260906210303 74 0 0.0 0.0 0.00 0.00 0.00 75 1017.7
20260906205803 74 0 0.0 0.0 0.00 0.00 0.00 75 1017.8
20260906205306 74 0 0.0 0.0 0.00 0.00 0.00 75 1017.8
20260906204803 74 0 0.0 0.0 0.00 0.00 0.00 74 1017.7
20260906204303 74 0 0.0 0.0 0.00 0.00 0.00 75 1017.7
20260906203803 75 0 0.0 0.0 0.00 0.00 0.00 75 1017.6
20260906203303 75 0 0.0 0.0 0.00 0.00 0.00 74 1017.5
20260906202803 76 0 0.0 0.0 0.00 0.00 0.00 74 1017.7
20260906202306 76 0 0.0 0.0 0.00 0.00 0.00 73 1017.8
20260906201803 76 0 0.0 0.0 0.00 0.00 0.00 74 1017.8
20260906201303 76 0 0.0 0.0 0.00 0.00 0.00 74 1017.7
20260906200803 75 0 0.0 0.0 0.00 0.00 0.00 74 1017.6
20260906200303 76 0 0.0 0.0 0.00 0.00 0.00 74 1017.7
20260906195803 76 0 0.0 0.0 0.00 0.00 0.00 74 1017.8
20260906195306 75 0 0.0 0.0 0.00 0.00 0.00 75 1017.6
20260906194803 75 0 0.0 0.0 0.00 0.00 0.00 74 1017.6
20260906194303 75 0 0.0 0.0 0.00 0.00 0.00 74 1017.6
20260906193803 76 0 0.0 0.0 0.00 0.00 0.00 72 1017.6
20260906193303 76 0 0.0 0.0 0.00 0.00 0.00 71 1017.8
20260906192803 76 0 0.0 0.0 0.00 0.00 0.00 72 1017.8
20260906192306 76 0 0.0 0.0 0.00 0.00 0.00 71 1017.9
20260906191803 76 0 0.0 0.0 0.00 0.00 0.00 71 1017.9
20260906191303 76 0 0.0 0.0 0.00 0.00 0.00 71 1017.9
20260906190803 76 0 0.0 0.0 0.00 0.00 0.00 74 1018.0
20260906190303 76 0 0.0 0.0 0.00 0.00 0.00 72 1017.9
20260906185803 76 0 0.0 0.0 0.00 0.00 0.00 73 1017.8
20260906185306 76 0 0.0 0.0 0.00 0.00 0.00 73 1017.8
20260906184803 76 0 0.0 0.0 0.00 0.00 0.00 73 1018.0
20260906184303 76 0 0.0 0.0 0.00 0.00 0.00 74 1017.9
20260906183803 76 0 0.0 0.0 0.00 0.00 0.00 71 1018.0
20260906183303 76 0 0.0 0.0 0.00 0.00 0.00 72 1018.0
20260906182803 76 0 0.0 0.0 0.00 0.00 0.00 72 1018.0
20260906182306 77 0 0.0 0.0 0.00 0.00 0.00 72 1018.0
20260906181803 77 0 0.0 0.0 0.00 0.00 0.00 73 1017.9
20260906181303 77 0 0.0 0.0 0.00 0.00 0.00 73 1017.9
20260906180803 76 0 0.0 0.0 0.00 0.00 0.00 73 1018.0
20260906180303 77 0 0.0 0.0 0.00 0.00 0.00 73 1018.1
20260906175803 76 0 0.0 0.0 0.00 0.00 0.00 73 1018.1
20260906175306 76 0 0.0 0.0 0.00 0.00 0.00 73 1018.0
20260906174803 76 0 0.0 0.0 0.00 0.00 0.00 74 1018.1
20260906174303 76 0 0.0 0.0 0.00 0.00 0.00 73 1018.1
20260906173803 76 0 0.0 0.0 0.00 0.00 0.00 72 1018.1
20260906173303 76 0 0.0 0.0 0.00 0.00 0.00 73 1018.1
20260906172803 76 0 0.0 0.0 0.00 0.00 0.00 71 1018.2
20260906171803 77 0 0.0 0.0 0.00 0.00 0.00 72 1018.5
20260906171303 77 0 0.0 0.0 0.00 0.00 0.00 72 1018.4
20260906170803 77 0 0.0 0.0 0.00 0.00 0.00 74 1018.4
20260906170303 77 0 0.0 0.0 0.00 0.00 0.00 72 1018.3
20260906165803 77 0 0.0 0.0 0.00 0.00 0.00 73 1018.4
20260906165306 77 0 0.0 0.0 0.00 0.00 0.00 72 1018.4
20260906164803 77 0 0.0 0.0 0.00 0.00 0.00 71 1018.5
20260906164303 77 0 0.0 0.0 0.00 0.00 0.00 70 1018.4
20260906163803 77 0 0.0 0.0 0.00 0.00 0.00 67 1018.5
20260906163303 77 0 0.0 0.0 0.00 0.00 0.00 69 1018.5
20260906162803 77 0 0.0 0.0 0.00 0.00 0.00 71 1018.4
20260906162305 77 0 0.0 0.0 0.00 0.00 0.00 71 1018.4
20260906161803 77 0 0.0 0.0 0.00 0.00 0.00 72 1018.2
20260906161303 77 0 0.0 0.0 0.00 0.00 0.00 71 1018.4
20260906160803 77 0 0.0 0.0 0.00 0.00 0.00 72 1018.1
20260906160303 78 0 0.0 0.0 0.00 0.00 0.00 70 1018.1
20260906155803 77 0 0.0 0.0 0.00 0.00 0.00 73 1018.1
20260906155306 77 0 0.0 0.0 0.00 0.00 0.00 74 1018.2
20260906154803 77 0 0.0 0.0 0.00 0.00 0.00 74 1018.2
20260906154303 77 0 0.0 0.0 0.00 0.00 0.00 75 1018.1
20260906153803 77 0 0.0 0.0 0.00 0.00 0.00 76 1018.1
20260906153303 76 0 0.0 0.0 0.00 0.00 0.00 77 1018.2
20260906152803 76 0 0.0 0.0 0.00 0.00 0.00 76 1018.2
20260906152306 76 0 0.0 0.0 0.00 0.00 0.00 78 1018.1
20260906151803 76 0 0.0 0.0 0.00 0.00 0.00 77 1018.2
20260906151303 76 0 0.0 0.0 0.00 0.00 0.00 76 1018.2
20260906150803 76 0 0.0 0.0 0.00 0.00 0.00 75 1018.1
20260906150303 76 0 0.0 0.0 0.00 0.00 0.00 76 1018.0
20260906145803 76 0 0.0 0.0 0.00 0.00 0.00 77 1018.0
20260906145306 76 0 0.0 0.0 0.00 0.00 0.00 77 1018.0
20260906144803 75 0 0.0 0.0 0.00 0.00 0.00 77 1018.1
20260906144303 75 0 0.0 0.0 0.00 0.00 0.00 76 1018.0
20260906143803 75 0 0.0 0.0 0.00 0.00 0.00 76 1018.1
20260906143303 75 0 0.0 0.0 0.00 0.00 0.00 76 1018.0
20260906142803 75 0 0.0 0.0 0.00 0.00 0.00 75 1018.0
20260906142306 75 0 0.0 0.0 0.00 0.00 0.00 77 1018.0
20260906141803 75 0 0.0 0.0 0.00 0.00 0.00 77 1018.0
20260906141303 75 0 0.0 0.0 0.00 0.00 0.00 78 1018.0
20260906140803 75 0 0.0 0.0 0.00 0.00 0.00 80 1017.9
20260906135803 74 0 0.0 0.0 0.00 0.00 0.00 81 1017.8
20260906135305 73 0 0.0 0.0 0.00 0.00 0.00 81 1017.7
20260906134803 73 0 0.0 0.0 0.00 0.00 0.00 82 1017.6
20260906134303 73 0 0.0 0.0 0.00 0.00 0.00 84 1017.5
20260906133803 73 0 0.0 0.0 0.00 0.00 0.00 85 1017.5
20260906133303 73 0 0.0 0.0 0.00 0.00 0.00 88 1017.5
20260906132803 72 0 0.0 0.0 0.00 0.00 0.00 89 1017.5
20260906132306 72 0 0.0 0.0 0.00 0.00 0.00 89 1017.6
20260906131803 72 0 0.0 0.0 0.00 0.00 0.00 90 1017.6
20260906131303 72 0 0.0 0.0 0.00 0.00 0.00 90 1017.4
20260906130803 71 0 0.0 0.0 0.00 0.00 0.00 91 1017.3
20260906130303 71 0 0.0 0.0 0.00 0.00 0.00 91 1017.4
20260906125803 71 0 0.0 0.0 0.00 0.00 0.00 92 1017.4
20260906125306 71 0 0.0 0.0 0.00 0.00 0.00 93 1017.4
20260906124803 71 0 0.0 0.0 0.00 0.00 0.00 93 1017.3
20260906124303 71 0 0.0 0.0 0.00 0.00 0.00 93 1017.3
20260906123803 71 0 0.0 0.0 0.00 0.00 0.00 93 1017.2
20260906123303 70 0 0.0 0.0 0.00 0.00 0.00 93 1017.1
20260906122803 70 0 0.0 0.0 0.00 0.00 0.00 93 1017.1
20260906122305 70 0 0.0 0.0 0.00 0.00 0.00 93 1017.0
20260906121803 70 0 0.0 0.0 0.00 0.00 0.00 94 1017.1
20260906121303 70 0 0.0 0.0 0.00 0.00 0.00 94 1017.0
20260906120803 70 0 0.0 0.0 0.00 0.00 0.00 94 1016.8
20260906120303 70 0 0.0 0.0 0.00 0.00 0.00 94 1016.8
20260906115803 70 0 0.0 0.0 0.00 0.00 0.00 94 1016.8
20260906115306 70 0 0.0 0.0 0.00 0.00 0.00 94 1016.8
20260906114803 70 0 0.0 0.0 0.00 0.00 0.00 94 1016.6
20260906114303 70 0 0.0 0.0 0.00 0.00 0.00 94 1016.5
20260906113803 70 0 0.0 0.0 0.00 0.00 0.00 94 1016.5
20260906113303 70 0 0.0 0.0 0.00 0.00 0.00 94 1016.5
20260906112803 70 0 0.0 0.0 0.00 0.00 0.00 94 1016.4
20260906112306 70 0 0.0 0.0 0.00 0.00 0.00 94 1016.3
20260906111803 70 0 0.0 0.0 0.00 0.00 0.00 94 1016.3
20260906111303 70 0 0.0 0.0 0.00 0.00 0.00 94 1016.1
20260906110803 70 0 0.0 0.0 0.00 0.00 0.00 94 1016.1
20260906110303 70 0 0.0 0.0 0.00 0.00 0.00 93 1016.2
20260906105803 70 0 0.0 0.0 0.00 0.00 0.00 93 1016.1
20260906105306 70 0 0.0 0.0 0.00 0.00 0.00 94 1016.0
20260906104803 70 0 0.0 0.0 0.00 0.00 0.00 93 1016.1
20260906104303 70 0 0.0 0.0 0.00 0.00 0.00 93 1016.1
20260906103803 70 0 0.0 0.0 0.00 0.00 0.00 93 1016.0
20260906103303 71 0 0.0 0.0 0.00 0.00 0.00 93 1015.8
20260906102803 71 0 0.0 0.0 0.00 0.00 0.00 93 1015.6
20260906102306 71 0 0.0 0.0 0.00 0.00 0.00 93 1015.7
20260906101803 71 0 0.0 0.0 0.00 0.00 0.00 93 1015.7
20260906101303 71 0 0.0 0.0 0.00 0.00 0.00 93 1015.6
20260906100803 71 0 0.0 0.0 0.00 0.00 0.00 92 1015.5
20260906100303 71 0 0.0 0.0 0.00 0.00 0.00 92 1015.6
20260906095803 71 0 0.0 0.0 0.00 0.00 0.00 92 1015.6
20260906095305 71 0 0.0 0.0 0.00 0.00 0.00 92 1015.6
20260906094803 72 0 0.0 0.0 0.00 0.00 0.00 92 1015.6
20260906094303 72 0 0.0 0.0 0.00 0.00 0.00 92 1015.6
20260906093803 72 0 0.0 0.0 0.00 0.00 0.00 92 1015.6
20260906093303 72 0 0.0 0.0 0.00 0.00 0.00 92 1015.5
20260906092803 72 0 0.0 0.0 0.00 0.00 0.00 92 1015.5
20260906092306 72 0 0.0 0.0 0.00 0.00 0.00 92 1015.5
20260906091803 72 0 0.0 0.0 0.00 0.00 0.00 92 1015.4
20260906091303 72 0 0.0 0.0 0.00 0.00 0.00 92 1015.5
20260906090803 72 0 0.0 0.0 0.00 0.00 0.00 92 1015.4
20260906090303 72 0 0.0 0.0 0.00 0.00 0.00 92 1015.4
20260906085803 72 0 0.0 0.0 0.00 0.00 0.00 92 1015.4
20260906085306 72 0 0.0 0.0 0.00 0.00 0.00 92 1015.5
20260906084803 72 0 0.0 0.0 0.00 0.00 0.00 92 1015.5
20260906084303 72 0 0.0 0.0 0.00 0.00 0.00 92 1015.5
20260906083803 72 0 0.0 0.0 0.00 0.00 0.00 92 1015.4
20260906083303 72 0 0.0 0.0 0.00 0.00 0.00 92 1015.4
20260906082803 72 0 0.0 0.0 0.00 0.00 0.00 92 1015.3
20260906082305 72 0 0.0 0.0 0.00 0.00 0.00 92 1015.3
20260906081803 72 0 0.0 0.0 0.00 0.00 0.00 92 1015.3
20260906081303 72 0 0.0 0.0 0.00 0.00 0.00 92 1015.3
20260906080803 72 0 0.0 0.0 0.00 0.00 0.00 92 1015.3
20260906080303 72 0 0.0 0.0 0.00 0.00 0.00 92 1015.3
20260906075803 72 0 0.0 0.0 0.00 0.00 0.00 92 1015.2
20260906075306 72 0 0.0 0.0 0.00 0.00 0.00 92 1015.3
20260906074803 72 0 0.0 0.0 0.00 0.00 0.00 93 1015.3
20260906074303 73 0 0.0 0.0 0.00 0.00 0.00 93 1015.3
20260906073803 73 0 0.0 0.0 0.00 0.00 0.00 93 1015.3
20260906073303 73 0 0.0 0.0 0.00 0.00 0.00 93 1015.3
20260906072803 73 0 0.0 0.0 0.00 0.00 0.00 93 1015.4
20260906072305 73 0 0.0 0.0 0.00 0.00 0.00 94 1015.3
20260906071803 73 0 0.0 0.0 0.00 0.00 0.00 94 1015.3
20260906071303 73 0 0.0 0.0 0.00 0.00 0.00 94 1015.4
20260906070803 73 0 0.0 0.0 0.00 0.00 0.00 94 1015.4
20260906070303 73 0 0.0 0.0 0.00 0.00 0.00 94 1015.5
20260906065803 72 0 0.0 0.0 0.00 0.00 0.00 94 1015.5
20260906065305 72 0 0.0 0.0 0.00 0.00 0.00 94 1015.4
20260906064803 72 0 0.0 0.0 0.00 0.00 0.00 93 1015.4
20260906064303 72 0 0.0 0.0 0.00 0.00 0.00 93 1015.4
20260906063803 72 0 0.0 0.0 0.00 0.00 0.00 93 1015.4
20260906063303 72 0 0.0 0.0 0.00 0.00 0.00 93 1015.4
20260906062803 72 0 0.0 0.0 0.00 0.00 0.00 93 1015.3
20260906062305 72 0 0.0 0.0 0.00 0.00 0.00 93 1015.3
20260906061803 72 0 0.0 0.0 0.00 0.00 0.00 93 1015.4
20260906061303 72 0 0.0 0.0 0.00 0.00 0.00 94 1015.4
20260906060803 72 0 0.0 0.0 0.00 0.00 0.00 94 1015.4
20260906060303 72 0 0.0 0.0 0.00 0.00 0.00 94 1015.4
20260906055803 72 0 0.0 0.0 0.00 0.00 0.00 94 1015.4
20260906055306 72 0 0.0 0.0 0.00 0.00 0.00 94 1015.4
20260906054803 72 0 0.0 0.0 0.00 0.00 0.00 94 1015.4
20260906054303 72 0 0.0 0.0 0.00 0.00 0.00 94 1015.4
20260906053803 72 0 0.0 0.0 0.00 0.00 0.00 94 1015.3
20260906053303 72 0 0.0 0.0 0.00 0.00 0.00 94 1015.3
20260906052803 72 0 0.0 0.0 0.00 0.00 0.00 94 1015.2
20260906052305 72 0 0.0 0.0 0.00 0.00 0.00 94 1015.1
20260906051803 72 0 0.0 0.0 0.00 0.00 0.00 94 1015.1
20260906051303 72 0 0.0 0.0 0.00 0.00 0.00 94 1015.0
20260906050803 72 0 0.0 0.0 0.00 0.00 0.00 94 1014.9
20260906050303 72 0 0.0 0.0 0.00 0.00 0.00 94 1014.9
20260906045803 72 0 0.0 0.0 0.00 0.00 0.00 94 1014.9
20260906045305 72 0 0.0 0.0 0.00 0.00 0.00 94 1014.9
20260906044803 72 0 0.0 0.0 0.00 0.00 0.00 94 1014.9
20260906044303 72 0 0.0 0.0 0.00 0.00 0.00 94 1014.9
20260906043803 72 0 0.0 0.0 0.00 0.00 0.00 94 1014.8
20260906043303 72 0 0.0 0.0 0.00 0.00 0.00 94 1014.8
20260906042803 72 0 0.0 0.0 0.00 0.00 0.00 94 1014.6
20260906042306 72 0 0.0 0.0 0.00 0.00 0.00 94 1014.6
20260906041803 72 0 0.0 0.0 0.00 0.00 0.00 94 1014.5
20260906041303 72 0 0.0 0.0 0.00 0.00 0.00 94 1014.5
20260906040803 72 0 0.0 0.0 0.00 0.00 0.00 94 1014.5
20260906040303 72 0 0.0 0.0 0.00 0.00 0.00 94 1014.5
20260906035803 72 0 0.0 0.0 0.00 0.00 0.00 94 1014.5
20260906035305 72 0 0.0 0.0 0.00 0.00 0.00 93 1014.4
20260906034803 72 0 0.0 0.0 0.00 0.00 0.00 93 1014.4
20260906034303 72 0 0.0 0.0 0.00 0.00 0.00 93 1014.4
20260906033803 72 0 0.0 0.0 0.00 0.00 0.00 93 1014.5
20260906033303 72 0 0.0 0.0 0.00 0.00 0.00 93 1014.4
20260906032803 73 0 0.0 0.0 0.00 0.00 0.00 93 1014.4
20260906032305 73 0 0.0 0.0 0.00 0.00 0.00 93 1014.4
20260906031803 73 0 0.0 0.0 0.00 0.00 0.00 93 1014.3
20260906031303 73 0 0.0 0.0 0.00 0.00 0.00 93 1014.4
20260906030803 73 0 0.0 0.0 0.00 0.00 0.00 92 1014.4
20260906030303 73 0 0.0 0.0 0.00 0.00 0.00 92 1014.5
20260906025803 73 0 0.0 0.0 0.00 0.00 0.00 92 1014.5
20260906025306 73 0 0.0 0.0 0.00 0.00 0.00 92 1014.5
20260906024803 73 0 0.0 0.0 0.00 0.00 0.00 92 1014.4
20260906024303 73 0 0.0 0.0 0.00 0.00 0.00 92 1014.4
20260906023803 73 0 0.0 0.0 0.00 0.00 0.00 92 1014.4
20260906023303 73 0 0.0 0.0 0.00 0.00 0.00 92 1014.4
20260906022803 73 0 0.0 0.0 0.00 0.00 0.00 92 1014.4
20260906022306 73 0 0.0 0.0 0.00 0.00 0.00 91 1014.4
20260906021803 73 0 0.0 0.0 0.00 0.00 0.00 91 1014.4
20260906021303 73 0 0.0 0.0 0.00 0.00 0.00 91 1014.4
20260906020803 73 0 0.0 0.0 0.00 0.00 0.00 91 1014.5
20260906020303 73 0 0.0 0.0 0.00 0.00 0.00 91 1014.6
20260906015803 73 0 0.0 0.0 0.00 0.00 0.00 91 1014.6
20260906015305 73 0 0.0 0.0 0.00 0.00 0.00 91 1014.6
20260906014803 73 0 0.0 0.0 0.00 0.00 0.00 91 1014.6
20260906014303 73 0 0.0 0.0 0.00 0.00 0.00 91 1014.5
20260906013803 73 0 0.0 0.0 0.00 0.00 0.00 91 1014.6
20260906013303 73 0 0.0 0.0 0.00 0.00 0.00 91 1014.5
20260906012803 73 0 0.0 0.0 0.00 0.00 0.00 91 1014.5
20260906012306 73 0 0.0 0.0 0.00 0.00 0.00 91 1014.5
20260906011803 73 0 0.0 0.0 0.00 0.00 0.00 91 1014.4
20260906011303 73 0 0.0 0.0 0.00 0.00 0.00 91 1014.3
20260906010803 73 0 0.0 0.0 0.00 0.00 0.00 91 1014.3
20260906010303 73 0 0.0 0.0 0.00 0.00 0.00 91 1014.2
20260906005803 73 0 0.0 0.0 0.00 0.00 0.00 91 1014.1
20260906005306 73 0 0.0 0.0 0.00 0.00 0.00 91 1013.9
20260906004803 73 0 0.0 0.0 0.00 0.00 0.00 91 1013.9
20260906004303 73 0 0.0 0.0 0.00 0.00 0.00 91 1013.9
20260906003803 73 0 0.0 0.0 0.00 0.00 0.00 91 1013.9
20260906003303 73 0 0.0 0.0 0.00 0.00 0.00 91 1013.8
20260906002803 73 0 0.0 0.0 0.00 0.00 0.00 91 1013.8
20260906002305 73 0 0.0 0.0 0.00 0.00 0.00 91 1013.8
20260906001803 73 0 0.0 0.0 0.00 0.00 0.00 91 1013.8
20260906001303 73 0 0.0 0.0 0.00 0.00 0.00 91 1013.8
20260906000803 73 0 0.0 0.0 0.00 0.00 0.00 91 1013.9
20260906000303 73 0 0.0 0.0 0.00 0.00 0.00 91 1013.8
20260905235803 73 0 0.0 0.0 0.00 0.00 0.00 91 1013.8
20260905235306 73 0 0.0 0.0 0.00 0.00 0.00 91 1013.9
20260905234803 73 0 0.0 0.0 0.00 0.00 0.00 91 1013.9
20260905234303 73 0 0.0 0.0 0.00 0.00 0.00 91 1013.9
20260905233803 73 0 0.0 0.0 0.00 0.00 0.00 91 1013.9
20260905233303 73 0 0.0 0.0 0.00 0.00 0.00 91 1013.8
20260905232803 73 0 0.0 0.0 0.00 0.00 0.00 90 1013.7